Location: Bergfeld
(52.0500°N, 11.7833°E)
Time: 18:08:07
(UTC+00:00)

STARLINK-1134 - Pass Details

Date: 17 February 2020
Orbit: 548 x 551 km, 53.0° (Epoch: 28 March)

Event Time Altitude Azimuth Distance (km) Brightness Sun altitude
Exits shadow 05:23:00 14° 281° (W) 1,579 5.3 -10.2°
Maximum altitude 05:26:32 83° 9° (N) 562 3.6 -9.6°
Drops below altitude 10° 05:30:42 10° 98° (E) 1,832 8.0 -9.0°
Sets 05:32:56 0° 99° (E) 2,725 9.7 -8.6°
